Location: Le Petit-Vavre
(46.5081°N, 1.5239°E)
Time: 14:47:59
(UTC+00:00)

Cosmos 2084 Rocket - Pass Details

Date: 03 March 2021
Orbit: 527 x 653 km, 62.8° (Epoch: 14 April)

Event Time Altitude Azimuth Distance (km) Brightness Sun altitude
Rises 18:23:03 0° 321° (NW) 2,798 7.5 -7.7°
Reaches altitude 10° 18:25:17 10° 325° (NW) 1,916 6.6 -8.1°
Maximum altitude 18:29:35 64° 47° (NE) 670 3.5 -8.8°
Drops below altitude 10° 18:34:03 10° 130° (SE) 1,983 5.7 -9.6°
Enters shadow 18:35:01 - 131° (SE) 2,361 6.1 -9.8°
